Talnakh (Russia)  www.meteorete.it

situazione meteo Attuale :16:22:00
Temperatura : -23.3
Umidita :76.3 %
Pressione :1023.2 hPa
Vel vento :10.1 Km
Direz. :SE
Precip.(mm.):0.2
   

Condizioni Meteo per: Talnakh, Russia

aggiornamento precedente: 14.12.2017 07:35
prossimo aggiornamento: 14.12.2017 20:00
Latitude: 69.49° N
Longitude: 88.4° E
Altitude: 174 m

hPa
mm °C
    Temperatura Precipitazioni Pressione vento Umidità Nuvoloso Nebbia
       OGGI
17:00 0.2 mm 1023.2 hPa 10.1 m/s 76% 100%
19:00 0.2 mm 1022.8 hPa 10.2 m/s 76% 98%
21:00 0.3 mm 1021.5 hPa 10.9 m/s 78% 100%
23:00 0.2 mm 1020.5 hPa 10.7 m/s 78% 95%
       DOMANI
01:00   1019.7 hPa 10.4 m/s 78% 95%
03:00 0.2 mm 1018.3 hPa 10.2 m/s 78% 100%
05:00 1.1 mm 1017.3 hPa 10.5 m/s 76% 100%
07:00 1.4 mm 1016.8 hPa 10.0 m/s 78% 100%
09:00 0.7 mm 1016.5 hPa 9.9 m/s 78% 98%
11:00 0.6 mm 1016.4 hPa 9.9 m/s 78% 100%
13:00 0.9 mm 1016.8 hPa 9.8 m/s 78% 100%
15:00 0.9 mm 1017.2 hPa 9.8 m/s 81% 99%
17:00 0.9 mm 1017.6 hPa 9.2 m/s 82% 99%
19:00 0.6 mm 1017.8 hPa 8.9 m/s 84% 99%
21:00 0.7 mm 1018.0 hPa 8.6 m/s 85% 100%
23:00 0.5 mm 1018.1 hPa 8.5 m/s 84% 99%
       Sabato 16.12.2017
01:00   1018.5 hPa 7.7 m/s 84% 100%
03:00 0.4 mm 1018.3 hPa 8.3 m/s 83% 100%
05:00 0.7 mm 1018.4 hPa 7.6 m/s 83% 100%
07:00 0.8 mm 1018.5 hPa 7.4 m/s 83% 100%
09:00 0.9 mm 1018.7 hPa 6.4 m/s 84% 100%
11:00 0.5 mm 1018.5 hPa 6.5 m/s 83% 100%
13:00 0.5 mm 1018.8 hPa 6.3 m/s 83% 100%
15:00 0.9 mm 1019.3 hPa 6.2 m/s 83% 100%
17:00 1.1 mm 1020.1 hPa 5.7 m/s 84% 100%
19:00 0.6 mm 1020.9 hPa 4.7 m/s 84% 100%
21:00 0.3 mm 1021.4 hPa 4.6 m/s 86% 100%
23:00   1022.0 hPa 4.3 m/s 86% 99%
       Domenica 17.12.2017
01:00 0.2 mm 1022.4 hPa 4.6 m/s 87% 98%
03:00 0.4 mm 1022.4 hPa 5.1 m/s 87% 100%
05:00 0.6 mm 1022.6 hPa 5.0 m/s 88% 100%
07:00 0.9 mm 1022.3 hPa 5.0 m/s 89% 100%
09:00 0.9 mm 1022.1 hPa 5.1 m/s 90% 100%
11:00 0.8 mm 1021.7 hPa 5.7 m/s 89% 99%
13:00 0.2 mm 1021.4 hPa 6.4 m/s 86% 99%
       Lunedi 18.12.2017
01:00 1.6 mm 1019.1 hPa 7.0 m/s 88% 100%
07:00 1.7 mm 1015.8 hPa 8.4 m/s 86% 100%
13:00 1.4 mm 1011.7 hPa 8.0 m/s 84% 100%
19:00   1011.9 hPa 4.4 m/s 82% 100%
       Martedi 19.12.2017
01:00   1015.1 hPa 1.5 m/s 81% 98%
07:00   1018.1 hPa 1.2 m/s 86% 97%
13:00 0.7 mm 1018.9 hPa 5.1 m/s 88% 100%
19:00 0.8 mm 1017.3 hPa 7.1 m/s 87% 100%
       Mercoledi 20.12.2017
01:00 1.8 mm 1013.3 hPa 7.4 m/s 86% 100%
07:00 0.8 mm 1011.0 hPa 4.8 m/s 83% 99%
13:00   1011.7 hPa 2.6 m/s 85% 5%
19:00   1012.7 hPa 2.8 m/s 89% 9%
       Giovedi 21.12.2017
01:00   1013.3 hPa 3.3 m/s 89% 20%
07:00   1014.1 hPa 3.1 m/s 88% 13%
13:00   1014.7 hPa 3.9 m/s 89% 20%
19:00   1015.6 hPa 5.2 m/s 89% 24%
       Venerdi 22.12.2017
01:00   1015.9 hPa 6.1 m/s 89% 100%
07:00   1015.5 hPa 8.0 m/s 80% 100%
13:00   1015.1 hPa 7.9 m/s 81% 100%
19:00 0.8 mm 1014.9 hPa 5.4 m/s 81% 100%
       Sabato 23.12.2017
01:00 0.7 mm 1016.0 hPa 6.1 m/s 79% 99%
07:00 0.6 mm 1016.8 hPa 6.7 m/s 82% 100%
13:00   1017.9 hPa 6.5 m/s 81% 98%
19:00   1019.7 hPa 7.0 m/s 81% 91%
       Domenica 24.12.2017
01:00   1021.3 hPa 7.1 m/s 81% 99%
07:00   1021.6 hPa 7.3 m/s 80% 100%